IRIDIUM 8 1 24792U 97020A 12037.25296752 .00000070 00000-0 18092-4 0 7723 2 24792 086.3911 057.0511 0002471 083.7526 276.3953 14.34214947772569 IRIDIUM 7 1 24793U 97020B 12037.45596750 .00000206 00000-0 66513-4 0 7729 2 24793 086.3913 057.1431 0002419 086.3139 273.8341 14.34212551772590 IRIDIUM 6 1 24794U 97020C 12037.17052082 .00000072 00000-0 18511-4 0 5694 2 24794 086.3915 057.2362 0002213 085.0943 275.0502 14.34212170772554 IRIDIUM 5 1 24795U 97020D 12037.44324247 .00000140 00000-0 43094-4 0 9469 2 24795 086.3907 057.2440 0002735 117.3067 242.8419 14.34214009772673 IRIDIUM 4 1 24796U 97020E 12035.58486686 +.00000056 +00000-0 +13053-4 0 07982 2 24796 086.3909 057.6233 0002367 082.5623 277.5842 14.34214469772341 IRIDIUM 914 1 24836U 97030A 12035.66806165 +.00000218 +00000-0 +65974-4 0 03586 2 24836 086.3912 079.6194 0004159 066.8594 293.3040 14.37715904767290 IRIDIUM 12 1 24837U 97030B 12035.64538415 +.00000208 +00000-0 +67072-4 0 07961 2 24837 086.3940 089.1962 0002401 087.9555 272.1927 14.34219050766083 IRIDIUM 10 1 24839U 97030D 12037.23737546 .00000186 00000-0 59440-4 0 8007 2 24839 086.3934 088.5222 0002382 089.3310 270.8152 14.34219366766325 IRIDIUM 13 1 24840U 97030E 12035.65174186 +.00000195 +00000-0 +62604-4 0 07463 2 24840 086.3942 089.2825 0002335 089.3456 270.8017 14.34216484766083 IRIDIUM 16 1 24841U 97030F 12037.49738526 .00000229 00000-0 72522-4 0 7831 2 24841 086.4019 089.1763 0002119 135.8205 224.3162 14.35574255766606 IRIDIUM 911 1 24842U 97030G 12035.66725240 +.00000268 +00000-0 +73101-4 0 04461 2 24842 086.4454 091.7609 0016831 106.5663 253.7386 14.43548430770117 IRIDIUM 15 1 24869U 97034A 12037.31690031 -.00001339 00000-0 -48539-3 0 8335 2 24869 086.3976 120.1883 0002392 093.4572 266.6983 14.34208687763299 IRIDIUM 17 1 24870U 97034B 12037.54430859 .00000097 00000-0 27410-4 0 7795 2 24870 086.3999 119.8038 0002511 074.5860 285.5613 14.34711483763378 IRIDIUM 920 1 24871U 97034C 12035.74587157 +.00000169 +00000-0 +49057-4 0 04035 2 24871 086.3990 111.4267 0010100 309.5936 050.4366 14.38361475764573 IRIDIUM 18 1 24872U 97034D 12035.74392670 -.00001154 +00000-0 -41922-3 0 07728 2 24872 086.3980 121.0212 0002065 093.5207 266.6151 14.34213626763068 IRIDIUM 921 1 24873U 97034E 12037.57446305 .00001496 00000-0 12028-3 0 8405 2 24873 086.3836 264.0958 0007264 322.5522 037.5236 14.99207525793553 IRIDIUM 26 1 24903U 97043A 12035.93313436 +.00000151 +00000-0 +46760-4 0 08964 2 24903 086.3969 354.4284 0002413 079.7072 280.4403 14.34318952757036 IRIDIUM 25 1 24904U 97043B 12037.36661310 .00000344 00000-0 11586-3 0 8018 2 24904 086.3965 353.7657 0002352 078.4037 281.7491 14.34212643757208 IRIDIUM 46 1 24905U 97043C 12037.37930005 .00000011 00000-0 -32834-5 0 8080 2 24905 086.3967 354.1304 0002427 078.0003 282.1591 14.34211406757210 IRIDIUM 23 1 24906U 97043D 12037.42369889 -.00000101 00000-0 -43268-4 0 8143 2 24906 086.3971 353.6617 0002440 084.3086 275.8459 14.34210574757221 IRIDIUM 22 1 24907U 97043E 12037.34758385 .00000335 00000-0 11250-3 0 7802 2 24907 086.3972 354.2136 0002412 079.9918 280.1602 14.34212841757216 DUMMY MASS 1 1 24925U 97048A 12035.96337076 +.00000244 +00000-0 +25890-4 0 00946 2 24925 086.3343 225.9180 0008902 108.5941 251.6254 14.84079990780905 DUMMY MASS 2 1 24926U 97048B 12035.97152927 +.00000236 +00000-0 +25111-4 0 00798 2 24926 086.3339 226.7118 0009463 114.4169 245.8042 14.83858671780799 IRIDIUM 29 1 24944U 97051A 12037.42713297 .00000107 00000-0 31082-4 0 7379 2 24944 086.3921 025.3595 0002437 081.7210 278.4262 14.34218533753794 IRIDIUM 32 1 24945U 97051B 12037.44617684 .00000124 00000-0 37360-4 0 7649 2 24945 086.3924 025.3720 0002440 079.9158 280.2316 14.34218221753810 IRIDIUM 33 1 24946U 97051C 12035.92934593 +.00000297 +00000-0 +10208-3 0 08689 2 24946 086.3842 026.1781 0009389 129.5730 230.6306 14.32710141753424 IRIDIUM 28 1 24948U 97051E 12035.92809275 +.00000308 +00000-0 +10237-3 0 06222 2 24948 086.3929 026.0909 0002230 087.6167 272.5284 14.34545541753588 IRIDIUM 30 1 24949U 97051F 12037.43983398 .00000081 00000-0 22034-4 0 8117 2 24949 086.3927 025.4420 0002297 080.5306 279.6166 14.34218027753794 IRIDIUM 31 1 24950U 97051G 12037.43349185 .00000085 00000-0 23401-4 0 7548 2 24950 086.3924 025.4456 0002335 081.1067 279.0403 14.34218039753809 IRIDIUM 19 1 24965U 97056A 12035.95274095 +.00000061 +00000-0 +14582-4 0 07523 2 24965 086.3913 057.5822 0002401 083.6617 276.4856 14.34214204751731 IRIDIUM 35 1 24966U 97056B 12035.96542325 +.00000066 +00000-0 +16581-4 0 08043 2 24966 086.3923 057.5931 0002350 087.1198 273.0269 14.34214619751719 IRIDIUM 36 1 24967U 97056C 12035.98151323 +.00000259 +00000-0 +84798-4 0 07408 2 24967 086.3929 057.6394 0002622 083.7258 276.4238 14.34563082751872 IRIDIUM 37 1 24968U 97056D 12035.66097371 +.00000017 +00000-0 -86198-6 0 07609 2 24968 086.3914 057.8489 0002441 086.2370 273.9111 14.34214764751676 IRIDIUM 34 1 24969U 97056E 12037.42422088 .00000050 00000-0 10878-4 0 7463 2 24969 086.3911 057.0518 0002384 084.7250 275.4218 14.34214678751922 IRIDIUM 43 1 25039U 97069A 12035.80737215 -.00001220 +00000-0 -44282-3 0 07509 2 25039 086.3979 121.0015 0002961 093.8345 266.3246 14.34208352745471 IRIDIUM 41 1 25040U 97069B 12037.33592696 -.00000291 00000-0 -11086-3 0 7472 2 25040 086.3992 120.2688 0001948 099.7419 260.4130 14.34211472745694 IRIDIUM 40 1 25041U 97069C 12035.89614911 -.00001026 +00000-0 -37366-3 0 07800 2 25041 086.3978 120.8251 0002306 095.8868 264.2505 14.34214331745500 IRIDIUM 39 1 25042U 97069D 12035.76295639 -.00000286 +00000-0 -10924-3 0 07515 2 25042 086.3994 121.1429 0001822 088.5939 271.5530 14.34211667745463 IRIDIUM 38 1 25043U 97069E 12035.94066561 +.00000238 +00000-0 +76811-4 0 07766 2 25043 086.3996 119.8346 0001835 117.2523 242.8861 14.34975374745652 IRIDIUM 42 1 25077U 97077A 12035.75026908 -.00000934 +00000-0 -34066-3 0 07560 2 25077 086.3983 120.9811 0002301 090.3551 269.7799 14.34215002741329 IRIDIUM 44 1 25078U 97077B 12037.43354208 .00000277 00000-0 87069-4 0 2414 2 25078 086.4004 114.1983 0001628 116.2784 243.8580 14.36897508742373 IRIDIUM 45 1 25104U 97082A 12037.37295674 .00000200 00000-0 64457-4 0 7163 2 25104 086.3959 353.7600 0002512 076.8073 283.3493 14.34212019739759 IRIDIUM 24 1 25105U 97082B 12037.39142678 .00000374 00000-0 11574-3 0 2956 2 25105 086.3928 341.3314 0010791 315.4932 044.5397 14.38617436741259 IRIDIUM 47 1 25106U 97082C 12035.92049758 -.00001608 +00000-0 -58163-3 0 06951 2 25106 086.3959 354.3043 0001841 058.7749 301.3741 14.34205938739548 IRIDIUM 49 1 25108U 97082E 12037.32856016 -.00000279 00000-0 -10672-3 0 7162 2 25108 086.3960 353.7650 0002486 076.0812 284.0763 14.34210115739756 IRIDIUM 52 1 25169U 98010A 12035.68342441 +.00000165 +00000-0 +51811-4 0 04878 2 25169 086.3946 089.3828 0002380 088.1411 272.0057 14.34219825730928 IRIDIUM 56 1 25170U 98010B 12035.67709973 +.00000172 +00000-0 +54218-4 0 06038 2 25170 086.3940 089.4542 0002415 088.7180 271.4290 14.34218678730901 IRIDIUM 54 1 25171U 98010C 12037.24372000 .00000213 00000-0 69029-4 0 7203 2 25171 086.3938 088.7405 0002418 089.1572 270.9896 14.34219341731299 IRIDIUM 50 1 25172U 98010D 12037.41496853 .00000255 00000-0 84127-4 0 7488 2 25172 086.3950 088.6366 0002390 088.1307 272.0155 14.34219676731150 IRIDIUM 53 1 25173U 98010E 12035.68978550 +.00000183 +00000-0 +58355-4 0 07287 2 25173 086.3941 089.3649 0002427 088.5055 271.6416 14.34218544730919 IRIDIUM 51 1 25262U 98018A 12037.46235221 .00000210 00000-0 56960-4 0 8555 2 25262 086.4467 057.2477 0002264 085.7540 274.3940 14.42948279730424 IRIDIUM 61 1 25263U 98018B 12035.59755287 +.00000063 +00000-0 +15410-4 0 06792 2 25263 086.3925 057.8464 0002382 085.5170 274.6299 14.34214403725995 IRIDIUM 55 1 25272U 98019A 12036.50746774 .00000131 00000-0 39685-4 0 6882 2 25272 086.3920 025.6878 0002425 079.8408 280.3074 14.34218472725322 IRIDIUM 57 1 25273U 98019B 12037.45884143 .00000071 00000-0 18423-4 0 7310 2 25273 086.3920 025.5095 0002362 077.4114 282.7345 14.34218925725466 IRIDIUM 58 1 25274U 98019C 12037.46520221 .00000022 00000-0 90329-6 0 5430 2 25274 086.3926 025.6471 0002336 080.4276 279.7166 14.34217774725464 IRIDIUM 59 1 25275U 98019D 12036.56453978 .00000090 00000-0 25034-4 0 3381 2 25275 086.3929 025.9831 0002593 063.6057 296.5403 14.34218689725339 IRIDIUM 60 1 25276U 98019E 12036.50113370 .00000128 00000-0 38561-4 0 7650 2 25276 086.3924 025.7056 0002419 083.7670 276.3797 14.34217897725324 IRIDIUM 62 1 25285U 98021A 12036.32301755 .00000326 00000-0 10925-3 0 7371 2 25285 086.3978 322.6688 0002363 076.9668 283.1788 14.34216415724254 IRIDIUM 63 1 25286U 98021B 12036.32937333 .00000369 00000-0 12455-3 0 7567 2 25286 086.4001 322.7753 0002438 071.7112 288.4353 14.34213166724253 IRIDIUM 64 1 25287U 98021C 12036.40545210 .00000373 00000-0 12631-3 0 6870 2 25287 086.3978 322.6600 0002356 074.9330 285.2124 14.34214545724244 IRIDIUM 65 1 25288U 98021D 12037.45833940 .00000350 00000-0 11792-3 0 7342 2 25288 086.3982 322.1598 0001997 076.3128 283.8285 14.34217434724413 IRIDIUM 66 1 25289U 98021E 12036.34837850 .00000399 00000-0 13525-3 0 6780 2 25289 086.3980 322.5430 0002241 074.5947 285.5506 14.34216234724257 IRIDIUM 67 1 25290U 98021F 12036.35472521 .00000332 00000-0 11137-3 0 5124 2 25290 086.3976 322.6469 0002348 076.5072 283.6391 14.34217160724267 IRIDIUM 68 1 25291U 98021G 12037.33783254 .00000294 00000-0 97996-4 0 7242 2 25291 086.3987 322.3185 0002301 072.2035 287.9419 14.34216890724372 IRIDIUM 69 1 25319U 98026A 12036.54229141 .00000324 00000-0 10176-3 0 5358 2 25319 086.3994 348.9139 0001277 103.8439 256.2902 14.37432363721544 IRIDIUM 71 1 25320U 98026B 12036.40650728 .00000311 00000-0 96306-4 0 2379 2 25320 086.3977 345.8450 0002129 013.5158 346.6096 14.37976631721865 IRIDIUM 70 1 25342U 98032A 12036.31667180 .00000297 00000-0 98952-4 0 7557 2 25342 086.3984 322.8949 0002153 071.0424 289.1008 14.34216658718332 IRIDIUM 72 1 25343U 98032B 12037.35051463 .00000274 00000-0 90770-4 0 7380 2 25343 086.3981 322.2032 0002255 073.2957 286.8473 14.34217187718489 IRIDIUM 73 1 25344U 98032C 12036.31425293 .00000325 00000-0 82950-4 0 6233 2 25344 086.4449 309.8504 0002989 076.1565 283.9970 14.47512546724024 IRIDIUM 74 1 25345U 98032D 12037.48262119 .00000405 00000-0 11510-3 0 7692 2 25345 086.4501 322.3764 0002299 077.6781 282.4684 14.42947729720440 IRIDIUM 75 1 25346U 98032E 12037.35685987 .00000327 00000-0 10965-3 0 7642 2 25346 086.3990 322.3834 0002317 078.2931 281.8547 14.34217132719050 IRIDIUM 03 1 25431U 98048A 12037.34124305 -.00000112 00000-0 -47092-4 0 6910 2 25431 086.3969 353.9649 0001889 068.3439 291.8025 14.34210636704992 IRIDIUM 76 1 25432U 98048B 12037.36027148 .00000105 00000-0 30305-4 0 6324 2 25432 086.3969 353.7743 0002674 063.4697 296.6820 14.34211490704985 IRIDIUM 82 1 25467U 98051A 12036.42258986 .00000358 00000-0 12076-3 0 8638 2 25467 086.4008 120.7729 0002409 104.8415 255.3056 14.34212499705869 IRIDIUM 81 1 25468U 98051B 12037.46278265 -.00001665 00000-0 -60176-3 0 6801 2 25468 086.3979 120.0820 0002476 094.7687 265.3769 14.34208170702234 IRIDIUM 80 1 25469U 98051C 12037.44375073 -.00001967 00000-0 -70982-3 0 6884 2 25469 086.3989 120.2782 0002318 093.7333 266.4065 14.34208048702232 IRIDIUM 77 1 25471U 98051E 12036.33379079 -.00001643 00000-0 -59395-3 0 8534 2 25471 086.3978 120.5154 0001528 069.7280 290.4083 14.34209031707274 IRIDIUM 2 1 25527U 98066A 12037.52915191 .00001772 00000-0 13758-3 0 2061 2 25527 085.5638 090.9377 0009662 359.6854 000.4367 15.00650196722662 IRIDIUM 86 1 25528U 98066B 12037.40862301 .00000281 00000-0 93222-4 0 9160 2 25528 086.3943 088.2840 0001603 092.9700 267.1675 14.34219877698759 IRIDIUM 84 1 25530U 98066D 12037.37056462 .00000218 00000-0 70695-4 0 5718 2 25530 086.3925 088.4286 0002433 089.2058 270.9418 14.34220120696382 IRIDIUM 83 1 25531U 98066E 12036.35575356 .00000223 00000-0 72675-4 0 7037 2 25531 086.3952 088.9019 0002398 091.1873 268.9599 14.34219412693598 IRIDIUM 20 1 25577U 98074A 12037.32221706 -.00000579 00000-0 -21371-3 0 6122 2 25577 086.3963 353.7400 0002350 082.6937 277.4611 14.34209052687818 IRIDIUM 11 1 25578U 98074B 12037.33490198 -.00000116 00000-0 -48502-4 0 8469 2 25578 086.3958 353.9554 0002414 083.1883 276.9671 14.34210857696783 IRIDIUM 14 1 25777U 99032A 12037.47318499 .00000499 00000-0 11128-3 0 8255 2 25777 086.5164 322.2262 0002355 080.9589 279.1882 14.54942984672139 IRIDIUM 21 1 25778U 99032B 12037.34417278 .00000323 00000-0 10819-3 0 6774 2 25778 086.3982 322.2903 0003844 050.6313 309.5235 14.34217484667492 IRIDIUM 91 1 27372U 02005A 12037.45252474 .00000081 00000-0 21957-4 0 2871 2 27372 086.3938 025.7785 0004645 131.2004 228.9592 14.34217777531025 IRIDIUM 90 1 27373U 02005B 12036.21953911 -.00000315 00000-0 -10042-3 0 2558 2 27373 086.4451 088.8482 0006663 058.0387 302.1610 14.42940774528866 IRIDIUM 94 1 27374U 02005C 12037.43928633 .00000502 00000-0 86720-4 0 4091 2 27374 085.9380 015.6350 0008886 103.6872 256.5346 14.66242188534459 IRIDIUM 95 1 27375U 02005D 12037.49057003 .00000158 00000-0 49358-4 0 2442 2 27375 086.3935 025.5578 0002364 078.2102 281.9370 14.34218510530318 IRIDIUM 96 1 27376U 02005E 12037.44588163 .00000441 00000-0 75900-4 0 3970 2 27376 086.5744 025.1943 0002644 080.3492 279.8017 14.66244519534454 IRIDIUM 97 1 27450U 02031A 12036.46015083 .00000108 00000-0 31360-4 0 1553 2 27450 086.3908 057.6176 0004586 123.3837 236.7818 14.34214654509481 IRIDIUM 98 1 27451U 02031B 12037.28512727 -.00001982 00000-0 -59966-3 0 2186 2 27451 086.4520 120.8049 0005371 126.6638 233.5183 14.42938475509879